This is the latest recevied weather packets stored in our database for station/object KD5FHA. If no packets are shown the sender has not sent any weather packets the latest 10 day(s).
| Time | Temp. | Humidity | Pressure | Rain* | Wind** | Luminosity | Snow |
|---|---|---|---|---|---|---|---|
| 1778207734 | 17.22° C | 74% | 1015.9 hPa | 0 mm | - | 0 W/m² | - |
| 1778207432 | 17.22° C | 74% | 1015.8 hPa | 0 mm | - | 0 W/m² | - |
| 1778207128 | 17.78° C | 73% | 1015.9 hPa | 0 mm | - | 0 W/m² | - |
| 1778206825 | 17.78° C | 69% | 1015.9 hPa | 0 mm | - | 0 W/m² | - |
| 1778206521 | 17.78° C | 68% | 1015.8 hPa | 0 mm | - | 0 W/m² | - |
| 1778206217 | 17.78° C | 68% | 1016 hPa | 0 mm | - | 0 W/m² | - |
| 1778205915 | 18.33° C | 68% | 1016 hPa | 0 mm | - | 0 W/m² | - |
| 1778205612 | 18.33° C | 68% | 1016 hPa | 0 mm | - | 0 W/m² | - |
| 1778205309 | 17.78° C | 69% | 1015.7 hPa | 0 mm | - | 0 W/m² | - |
| 1778205006 | 18.33° C | 69% | 1015.7 hPa | 0 mm | - | 0 W/m² | - |
| 1778204703 | 18.33° C | 66% | 1015.6 hPa | 0 mm | - | 0 W/m² | - |
| 1778204399 | 18.33° C | 66% | 1015.9 hPa | 0 mm | - | 0 W/m² | - |
| 1778204095 | 18.33° C | 66% | 1015.7 hPa | 0 mm | - | 0 W/m² | - |
| 1778203792 | 18.33° C | 67% | 1015.7 hPa | 0 mm | - | 0 W/m² | - |
| 1778203489 | 18.89° C | 65% | 1015.7 hPa | 0 mm | - | 0 W/m² | - |
| 1778203187 | 18.33° C | 66% | 1015.7 hPa | 0 mm | - | 1 W/m² | - |
| 1778202885 | 18.89° C | 65% | 1015.7 hPa | 0 mm | - | 2 W/m² | - |
| 1778202582 | 18.89° C | 62% | 1015.7 hPa | 0 mm | - | 3 W/m² | - |
| 1778202278 | 18.89° C | 62% | 1015.7 hPa | 0 mm | - | 7 W/m² | - |
| 1778201976 | 19.44° C | 61% | 1015.8 hPa | 0 mm | - | 11 W/m² | - |
| 1778201672 | 19.44° C | 60% | 1015.8 hPa | 0 mm | - | 13 W/m² | - |
| 1778201369 | 19.44° C | 60% | 1015.9 hPa | 0 mm | - | 20 W/m² | - |
| 1778201065 | 19.44° C | 60% | 1015.6 hPa | 0 mm | - | 29 W/m² | - |
| 1778200762 | 19.44° C | 60% | 1015.6 hPa | 0 mm | - | 35 W/m² | - |
| 1778200459 | 19.44° C | 59% | 1015.8 hPa | 0 mm | - | 39 W/m² | - |
* Rain latest hour (hover to see other rain measurements)
** Current wind speed in m/s (hover to see current wind gust speed)